Location: Domont
(49.0278°N, 2.3264°E)
Time: 03:52:26
(UTC+00:00)

H-2A R/B - Pass Details

Date: 01 June 2022
Orbit: 576 x 652 km, 98.5° (Epoch: 04 July)

Event Time Altitude Azimuth Distance (km) Brightness Sun altitude
Rises 20:37:10 0° 10° (N) 2,804 6.0 -7.1°
Reaches altitude 10° 20:39:21 10° 5° (N) 1,903 5.2 -7.3°
Maximum altitude 20:43:19 49° 290° (WNW) 760 3.0 -7.7°
Drops below altitude 10° 20:47:18 10° 216° (SW) 1,911 4.5 -8.2°
Sets 20:49:31 0° 211° (SSW) 2,817 5.3 -8.4°
